sat.trackr.live / text

‹ back to catalog

STARLINK-34247

NORAD 65083 · 2025-167F

PAYLOAD ACTIVE UNKNOWN

§ Identity

Operator
Country
US
Launch date
2025-08-04
Launch site
AFETR
Launch vehicle
Mass (kg)
RCS (m²)

Purposes: comms

External: N2YO · Heavens-Above · Gunter

§ Orbital elements

Epoch: 2026-05-24T23:13:28.240608Z

Period
94.11 min
Inclination
53.1583°
Eccentricity
0.0001045
Mean motion
15.30201172 rev/d
Perigee alt
474.5 km
Apogee alt
475.9 km
Semi-major
6,853.3 km
B*
2.3905e-4
RAAN
29.8984°
Arg perigee
84.2797°
Mean anomaly
275.8322°
Rev number
4,519

§ Raw data

STARLINK-342471 65083U 25167F   26144.96768797  .00006728  00000+0  23905-3 0  99932 65083  53.1583  29.8984 0001045  84.2797 275.8322 15.30201172 45196

JSON: /api/v1/satellites/65083 · /tle

For live sub-satellite position, see the globe view (requires WebGL).

§ Visibility from observer

Set your observer location to see the next 7 days of passes ≥ 10°. The values pass through the URL so the page stays shareable.

No JS? Fill the form by hand. The geolocation button needs JavaScript.